Miscellaneous Local Product
Issued by NWS North Platte, NE

Home | Current Version | Previous Version | Graphics & Text | Print | Product List | Glossary On
Versions: 1 2 3 4 5 6 7 8 9 10 11 12 13 14 15 16 17 18 19 20 21 22 23 24 25 26 27 28 29 30 31 32 33 34 35 36 37 38 39 40 41 42 43 44 45 46 47 48 49 50
860
AXUS43 KLBF 252110
MISLBF


WESTERN AND NORTH CENTRAL NEBRASKA HOURLY WEATHER ROUNDUP
NATIONAL WEATHER SERVICE NORTH PLATTE NE
400 PM CDT MON JUL 25 2016

NOTE: "FAIR" INDICATES FEW OR NO CLOUDS BELOW 12,000 FEET WITH NO
SIGNIFICANT WEATHER AND/OR OBSTRUCTIONS TO VISIBILITY.

NOTE: STATIONS NOT REPORTING VARIABLES SUCH AS SKY/WEATHER OR
PRESSURE ARE PROVIDED BY RAWS AND APRS NETWORKS AND ARE NOT UNDER
NATIONAL WEATHER SERVICE QUALITY CONTROL.

...OBSERVATIONS IN AND NEAR THE EASTERN PANHANDLE OF NEBRASKA...

CITY           SKY/WX    TMP DP  RH WIND       PRES   REMARKS
PINE RIDGE     LGT RAIN  91  55  29 S14G25    30.05F
CHADRON        SUNNY     92  54  27 S21       30.03F HX  90
ALLIANCE       SUNNY     87  58  37 S21G31    30.10F
SIDNEY         SUNNY     87  59  38 S22G30    30.15F
CRESCENT LAKE    N/A     85  62  45 S10G21      N/A
$$

...OBSERVATIONS IN NORTHERN NEBRASKA AND FAR SOUTHERN SOUTH DAKOTA...

CITY           SKY/WX    TMP DP  RH WIND       PRES   REMARKS
WINNER         FAIR      96  44  16 S18       30.04F HX  92
VALENTINE      SUNNY     91  52  26 S22G28    30.07F
THEDFORD       SUNNY     87  61  41 S17       30.11F
AINSWORTH      SUNNY     88  54  31 S17       30.09F
O`NEILL        SUNNY     88  50  27 S12       30.10F
ORD            SUNNY     85  60  42 S9        30.09F
BROKEN BOW     SUNNY     85  59  41 SE13G24   30.11F
VALENTINE NWR    N/A     88  58  35 S14G21      N/A
BUTTE            N/A     87  53  31 S17G25      N/A
HALSEY           N/A     84  58  40 S13G20      N/A
EWING            N/A     87  63  44 S6G13       N/A
$$

...OBSERVATIONS IN SOUTHWEST NEBRASKA AND FAR NORTHEAST COLORADO...

CITY           SKY/WX    TMP DP  RH WIND       PRES   REMARKS
WRAY           FAIR      88  61  40 SE17G26   30.13S
IMPERIAL       SUNNY     89  58  34 SE21G28   30.10F
OGALLALA       SUNNY     88  58  36 SE13G20   30.10F
NORTH PLATTE   MOSUNNY   85  66  53 SE8       30.09F
MCCOOK         SUNNY     89  64  43 SE16      30.09F HX  90
LEXINGTON      SUNNY     85  66  53 SE12      30.11F
STAPLETON        N/A     84  67  57 E3          N/A
GOTHENBURG       N/A     82  61  49 SE9         N/A
CALLAWAY         N/A     82  67  59 SE12        N/A
$$

...OBSERVATIONS IN CENTRAL LINCOLN COUNTY AREA...

CITY           SKY/WX    TMP DP  RH WIND       PRES   REMARKS
N.P. AIRPORT   MOSUNNY   85  66  53 SE8       30.09F
N.P. DOWNTOWN    N/A     86  67  53 SE5G13      N/A
N.P. HILLCREST   N/A     84  67  55 S12G22      N/A
$$

...SOME OBSERVATIONS FROM AROUND THE REGION...

CITY           SKY/WX    TMP DP  RH WIND       PRES   REMARKS
DENVER         CLOUDY    96  49  20 N10G18    30.13F HX  93
LARAMIE        SUNNY     86  17   8 N16G24    30.28F
CHEYENNE       SUNNY     86  49  27 SE14G22   30.21F
SCOTTSBLUFF    SUNNY     93  55  27 SE15G21   30.07F HX  91
RAPID CITY     CLOUDY    88  55  32 S15G22    30.01F
BISMARCK       SUNNY     92  65  40 S9        29.93F HX  94
PIERRE         SUNNY     97  44  16 S23G33    29.96F HX  93
SIOUX FALLS    SUNNY     85  61  44 SW7       30.08F
OMAHA          MOSUNNY   88  64  44 NE6       30.07F
GRAND ISLAND   SUNNY     86  63  45 SE12      30.10F
KANSAS CITY    CLOUDY    86  70  58 NE14      30.02F HX  90
WICHITA        PTSUNNY   88  69  53 VRB5      30.02F HX  92
OKLAHOMA CITY  PTSUNNY   94  69  44 CALM      29.95F HX  99
DALLAS         PTSUNNY  100  68  35 NE12      29.88F HX 105
AMARILLO       CLOUDY    83  58  42 SE14      30.11S
DODGE CITY     SUNNY     86  65  49 E8        30.08F
HAYS           MOSUNNY   84  63  48 E6        30.08F
GOODLAND       MOSUNNY   84  63  49 S16       30.15F
$$




USA.gov is the U.S. government's official web portal to all federal, state and local government web resources and services.